User: anonymous   Login
Location: Sawmill Trailhead
(33.5800°N, 116.4497°W)
Time: 06:25:26
(UTC-07:00)
Language:

Uosat F - Orbit

View from above orbital plane
View from above orbital plane
View from above satellite
View from above satellite

Ground track
Ground track

The orbit data is extracted from the following two-line orbital elements,

1 21575U 91050B   16148.99688736  .00000037  00000-0  26103-4 0  9997
2 21575  98.7605 150.0677 0007562  15.6680 344.4740 14.40740702305811
Epoch (UTC): 27 May 2016 23:55:31
Eccentricity: 0.0007562
inclination: 98.7605°
perigee height: 750 km
apogee height: 761 km
right ascension of ascending node: 150.0677°
argument of perigee: 15.6680°
revolutions per day: 14.40740702
mean anomaly at epoch: 344.4740°
orbit number at epoch: 30581

The dashed part of the orbit path shows where the satellite is in the earth's shadow,  

DLR